Location: El Abasto
(10.3790°N, 67.5897°W)
Time: 18:03:42
(UTC+00:00)

Cosmos 1666 - Pass Details

Date: 19 May 2024
Orbit: 439 x 454 km, 82.5° (Epoch: 11 June)

Event Time Altitude Azimuth Distance (km) Brightness Sun altitude
Rises 23:25:43 0° 13° (NNE) 2,432 6.2 -9.9°
Reaches altitude 10° 23:28:01 10° 27° (NNE) 1,559 5.1 -10.5°
Maximum altitude 23:30:52 25° 84° (E) 936 3.5 -11.1°
Enters shadow 23:32:32 17° 127° (SE) 1,186 3.9 -11.5°
